Regional Weather Roundup
Issued by NWS

Home | Current Version | Previous Version | Graphics & Text | Print | Product List | Glossary On
Versions: 1 2 3 4 5 6 7 8 9 10 11 12 13 14 15 16 17 18 19 20 21 22 23 24 25 26 27 28 29 30 31 32 33 34 35 36 37 38 39 40 41 42 43 44 45 46 47 48 49 50
000
ASUS45 KCYS 251810
RWRWY

WYOMING REGIONAL WEATHER ROUNDUP
NATIONAL WEATHER SERVICE CHEYENNE WY
1200 PM MDT SAT APR 25 2015

NOTE:  "FAIR" INDICATES FEW OR NO CLOUDS BELOW 12,000 FEET
WITH NO SIGNIFICANT WEATHER AND/OR OBSTRUCTIONS TO VISIBILITY.

WYZ001-251900-
YELLOWSTONE NATIONAL PARK

CITY           SKY/WX    TMP DP  RH WIND       PRES   REMARKS
LK YELLOWSTONE   N/A     34  24  67 VRB5      29.81S WCI  30
6HR MIN TEMP:  29; 6HR MAX TEMP:  34;

W YELLOWSTONE  NOT AVBL

$$
WYZ002>013-054>058-071-098>099-251900-
NORTHERN WYOMING

CITY           SKY/WX    TMP DP  RH WIND       PRES   REMARKS
JACKSON        PTSUNNY   43  23  45 S9        29.81R
CODY           CLOUDY    41  37  87 N12       29.77R
GREYBULL       CLOUDY    45  38  76 NW12      29.75R
6HR MIN TEMP:  41; 6HR MAX TEMP:  46; 6HR PCP:  0.01;

WORLAND        CLOUDY    44  37  76 NW13      29.76R
6HR MIN TEMP:  41; 6HR MAX TEMP:  46; 6HR PCP:  0.02;

SHERIDAN       CLOUDY    39  34  82 NW23      29.77R WCI  28
6HR MIN TEMP:  39; 6HR MAX TEMP:  44;

BUFFALO        CLOUDY    41  35  79 N24G36    29.73R
6HR MIN TEMP:  41; 6HR MAX TEMP:  45;

GILLETTE       FAIR      53  42  66 NW22      29.68R
6HR MIN TEMP:  43; 6HR MAX TEMP:  58;

HULETT         CLOUDY    61  41  48 S7G16     29.68R
NEWCASTLE      FAIR      59  37  44 SE9G17    29.69S

$$
WYZ014>020-022>026-101>103-251900-
CENTRAL WYOMING

CITY           SKY/WX    TMP DP  RH WIND       PRES   REMARKS
BIG PINEY      PTSUNNY   43  25  49 S3        29.81S
6HR MIN TEMP:  32; 6HR MAX TEMP:  45;

PINEDALE       CLOUDY    41  28  60 W7G16     29.82R
DUBOIS         MOCLDY    46  21  36 W20G29    29.74S
LANDER         FAIR      56  34  43 E12G18    29.69S
6HR MIN TEMP:  40; 6HR MAX TEMP:  56;

RIVERTON       PTSUNNY   54  37  52 NE13      29.71R
6HR MIN TEMP:  41; 6HR MAX TEMP:  54;

CASPER         FAIR      60  31  33 SW20G29   29.71R
6HR MIN TEMP:  40; 6HR MAX TEMP:  60;

DOUGLAS        FAIR      62  34  35 W14       29.71S
6HR MIN TEMP:  38; 6HR MAX TEMP:  62;


$$
WYZ021-027>030-104>119-251900-
SOUTHERN WYOMING

CITY           SKY/WX    TMP DP  RH WIND       PRES   REMARKS
EVANSTON       FAIR      44  27  51 S10G18    29.83F
6HR MIN TEMP:  30; 6HR MAX TEMP:  45;

KEMMERER       FAIR      43  28  56 W13G20    29.83S
FORT BRIDGER   CLEAR     48  23  37 W17       29.86S
ROCK SPRINGS   FAIR      45  27  49 W17G25    29.82S
6HR MIN TEMP:  35; 6HR MAX TEMP:  46;

DIXON          MOCLDY    40  36  88 SE3       29.89F
RAWLINS        PTSUNNY   43  26  51 SW18G26   29.82S
6HR MIN TEMP:  37; 6HR MAX TEMP:  44; 6HR PCP:  0.01;

SARATOGA       CLOUDY    43  30  61 W15       29.84F
LARAMIE        FAIR      49  33  54 W9        29.79S
6HR MIN TEMP:  35; 6HR MAX TEMP:  49;

CHEYENNE       FAIR      60  30  32 SW6       29.75R
6HR MIN TEMP:  37; 6HR MAX TEMP:  60;

TORRINGTON     FAIR      64  39  39 NE5       29.69F
6HR MIN TEMP:  38; 6HR MAX TEMP:  65;

PINE BLUFFS    FAIR      64  32  29 CALM      29.73S

$$


USA.gov is the U.S. government's official web portal to all federal, state and local government web resources and services.